MIRATA

Last updated on Mon Oct 20 2025 00:03:49 GMT+0000 (Coordinated Universal Time)

1 43015U 17073C 25292.27571938 .01869914 25456-2 28278-2 0 9994 2 43015 97.5043 195.5463 0009798 310.2851 49.7572 16.05141532431379
UTC large
Height (km)
Speed (km/s)
/
Latitude / Longitude
Inclination (degrees)
Orbital Period (minutes)
Azimuth
Elevation
Range (km)
Doppler Factor

Next 0 passes for location: London (51.5072 / 0.1276)

Sorry there are no passes over London.